Regional Weather Roundup
Issued by NWS

Home | Current Version | Previous Version | Text Only | Print | Product List | Glossary On
Versions: 1 2 3 4 5 6 7 8 9 10 11 12 13 14 15 16 17 18 19 20 21 22 23 24 25 26 27 28 29 30 31 32 33 34 35 36 37 38 39 40 41 42 43 44 45 46 47 48 49 50
927
ASUS44 KLIX 050213
RWRLA
LOUISIANA WEATHER ROUNDUP
NATIONAL WEATHER SERVICE NEW ORLEANS LA
800 PM CST SUN DEC 04 2016

NOTE: "FAIR" INDICATES FEW OR NO CLOUDS BELOW 12,000 FEET WITH NO
      SIGNIFICANT WEATHER AND/OR OBSTRUCTIONS TO VISIBILITY.
      SKY/WX - SKY CONDITION AND SIGNIFICANT WEATHER.
      TMP - AIR TEMPERATURE.    DP   - DEWPOINT TEMPERATURE.
      RH  - RELATIVE HUMIDITY.  PRES - PRESSURE.
      HX  - HEAT INDEX.         WCI  - WIND CHILL INDEX.

*  THESE STATIONS ARE NOT NWS OR FAA STATIONS AND ARE NOT UNDER
   NWS QUALITY CONTROL.

LAZ040-048-061>063-065-066-069-050300-
SOUTHEAST LOUISIANA

CITY           SKY/WX    TMP DP  RH WIND       PRES   REMARKS
N.O. AUDUBON   NOT AVBL
N.O. INTL ARPT RAIN      61  61 100 CALM      29.99S
N.O. LAKEFRONT RAIN      62  61  96 NE6       30.00R FOG
N.O. DOWNTOWN* LGT RAIN  62  61  96 CALM      30.01R
RESERVE*       LGT RAIN  62  60  94 E5        29.97F
SLIDELL        CLOUDY    60  59  96 CALM      30.00R
BATON ROUGE    LGT RAIN  57  56  96 NW6       30.00R
BOOTHVILLE     LGT RAIN  61  61 100 N9G18     29.98S
BELLE CHASSE   CLOUDY    63  62  97 CALM      30.00R
BOGALUSA*      MOCLDY    58  55  89 CALM      29.99R
GALLIANO*      CLOUDY    63  60  90 N8        29.98S
NEW ROADS*     RAIN      52  51  96 NE6       30.00F
GONZALES*      LGT RAIN  59  59 100 CALM      29.96S
HAMMOND*       LGT RAIN  59  55  88 CALM      29.98S
HOUMA*         HVY RAIN  62  62  99 NE5       30.00R
PORT FOURCHON* CLOUDY    64  63  94 N13       29.97S

$$

LAZ041-044-053-054-050300-
SOUTHWEST LOUISIANA

CITY           SKY/WX    TMP DP  RH WIND       PRES   REMARKS
LAKE CHARLES   CLOUDY    52  51  97 NE10      29.96R
LAFAYETTE      RAIN      54  53  97 N14       29.96F
PATTERSON      RAIN     N/A N/A N/A E6        29.97S
SALT POINT     NOT AVBL
NEW IBERIA     LGT RAIN  55  53  93 N9        29.97F
CHENAULT AIRPK NOT AVBL

$$

LAZ027-028-050300-
CENTRAL LOUISIANA

CITY           SKY/WX    TMP DP  RH WIND       PRES   REMARKS
FORT POLK      CLOUDY    49  48  97 NE7       29.97F
ALEXANDRIA INT CLOUDY    49  47  93 NE8       29.99R
ALEXANDRIA     CLOUDY    49  48  97 NE3       30.01R

$$

LAZ001-002-050300-
NORTHWEST LOUISIANA

CITY           SKY/WX    TMP DP  RH WIND       PRES   REMARKS
SHREVEPORT     CLOUDY    50  46  86 E5        30.03R
BARKSDALE AFB  CLOUDY    48  48  99 CALM      30.03R
DTN SHREVEPORT CLOUDY    49  46  90 CALM      30.03R

$$

LAZ014-016-050300-
NORTHEAST LOUISIANA

CITY           SKY/WX    TMP DP  RH WIND       PRES   REMARKS
MONROE         CLOUDY    49  46  90 N8        30.04S
TALLULAH       MOCLDY    48  46  93 NE9       30.01F

$$





USA.gov is the U.S. government's official web portal to all federal, state and local government web resources and services.